Location: Kadun
(50.5263°N, 18.5756°E)
Time: 17:11:30
(UTC+00:00)

Daily predictions for brighter satellites

Satellite Brightness Start Highest point End
(mag) Time Altitude Azimuth Time Altitude Azimuth Time Altitude Azimuth
Cosmos 1758 Rocket 3.8 19:33:57 10° S 19:38:21 57° E 19:42:47 10° NNE
Cosmos 1626 Rocket 4.4 19:35:39 10° SSW 19:40:03 57° WNW 19:44:28 10° N
SPOT 5 3.6 19:35:37 10° SE 19:40:19 42° ENE 19:44:48 10° N
Lacrosse 5 rocket 2.9 19:38:26 10° W 19:42:30 40° NNW 19:46:22 10° NE
Spot 2 Rocket 3.6 19:38:03 10° SSE 19:43:09 87° ENE 19:48:18 10° NNW
ATLAS 5 CENTAUR R/B 3.6 19:42:21 10° W 19:45:10 26° NW 19:47:02 10° NNE
Cosmos 1745 Rocket 4.1 19:42:04 10° S 19:48:17 88° W 19:54:37 10° N
Landsat 7 3.9 19:44:10 10° SSE 19:48:56 90° N 19:53:44 10° NNW
USA 267 3.6 19:49:02 10° ESE 19:55:32 69° NNE 20:02:05 10° WNW
SPOT 1/Viking Rocket 3.6 19:52:10 10° SSE 19:57:19 89° ENE 20:02:32 10° NNW
Alouette 2 Rocket 3.6 19:56:45 10° NNW 20:00:29 84° WSW 20:05:22 10° S
Cosmos 1953 Rocket 3.7 19:57:15 10° S 20:01:27 54° E 20:05:41 10° NNE
Cosmos 2322 Rocket 3.1 19:57:49 10° SW 20:03:19 55° NW 20:08:52 10° NNE
NOSS 7 (D) 3.9 20:02:33 10° SW 20:05:20 79° NW 20:08:00 10° NE
Cosmos 2237 4.4 20:00:12 10° SSW 20:05:57 84° WNW 20:11:45 10° NNE
Cosmos 2084 3.7 20:02:45 10° NW 20:07:14 72° NE 20:11:33 11° SE
Cosmos 1328 3.8 20:03:51 10° S 20:07:49 89° W 20:11:49 10° N
Cosmos 1842 Rocket 4.4 20:04:05 10° N 20:08:08 36° ENE 20:11:52 12° SE
SAR-Lupe-2 3.6 20:05:27 10° NNE 20:09:02 66° ESE 20:12:36 10° S
Cosmos 1455 3.7 20:07:54 10° NNW 20:11:25 34° W 20:14:56 10° SSW
Cosmos 1825 Rocket 3.8 20:12:45 10° SSW 20:17:11 74° WNW 20:21:41 10° N
ATLAS CENTAUR R/B 1.0 20:15:28 10° NW 20:19:12 85° NE 20:22:16 14° SE
Cosmos 1703 3.9 20:17:59 10° SSW 20:21:48 55° WNW 20:25:38 10° N
COSMOS 2428 3.0 20:17:40 10° S 20:23:05 48° ESE 20:28:31 10° NE
Cosmos 1844 4.3 20:18:23 10° NW 20:23:59 52° WSW 20:29:30 10° S
NOSS 3-4 (A) 4.3 20:17:34 10° NW 20:24:13 56° NE 20:31:34 10° ESE
NOSS 3-4 (C) 4.3 20:17:41 10° NW 20:24:19 55° NE 20:31:41 10° ESE
SL-24 R/B - RUBIN 2 4.5 20:20:01 10° SSW 20:26:06 74° SE 20:32:46 10° NE
Cosmos 2322 3.7 20:21:14 10° SSW 20:26:57 79° ESE 20:32:42 10° NNE
Meteor 1-27 4.3 20:24:39 10° NNW 20:30:24 88° E 20:35:46 12° SSE
Cosmos 1869 3.8 20:26:58 10° N 20:30:50 47° ENE 20:33:50 16° SE
Cosmos 1709 Rocket 4.3 20:27:06 10° SSW 20:33:24 75° WNW 20:39:48 10° N
NOSS 3-3 (A) 4.1 20:29:52 10° SSW 20:35:35 55° ESE 20:42:03 10° NE
NOSS 3-3 (C) 4.1 20:29:59 10° SSW 20:35:42 55° ESE 20:42:10 10° NE
Terra 1.8 20:31:40 13° SSE 20:35:54 90° S 20:40:42 10° NNW
Cosmos 2237 Rocket 3.3 20:33:12 14° SSE 20:36:54 26° ESE 20:41:33 10° NE
CARTOSAT-1 4.1 20:32:57 10° S 20:37:07 56° W 20:41:24 10° NNW
Atlas Centaur 2 4.3 20:35:04 10° SSW 20:37:33 12° S 20:38:47 12° S
Cosmos 2333 4.2 20:33:06 10° SSW 20:38:46 90° WNW 20:44:31 10° NNE
Cosmos 2219 Rocket 2.2 20:33:35 10° SSW 20:39:07 68° ESE 20:44:42 10° NNE
Cosmos 2360 Rocket 3.1 20:35:43 10° SW 20:41:13 52° NW 20:46:47 10° NNE
Cosmos 1538 Rocket 4.0 20:36:33 10° SSW 20:41:53 71° ESE 20:47:12 10° NNE
Cosmos 2184 Rocket 4.1 20:42:25 13° S 20:47:58 61° E 20:54:12 10° NNE
Meteor 2-2 Rocket 4.3 20:42:37 10° N 20:48:30 75° ENE 20:53:04 17° SSE
Cosmos 2333 Rocket 2.2 20:43:14 10° SSW 20:48:56 84° ESE 20:54:42 10° NNE
Cosmos 1315 Rocket 3.3 20:46:50 10° NNW 20:50:53 59° W 20:54:13 15° S
ATLAS 2AS CENTAUR R/B 3.1 20:44:35 10° NW 20:52:18 68° NE 20:59:01 12° ESE
Resurs 01 Rocket 4.4 20:51:36 10° WSW 20:52:50 11° W 20:54:03 10° WNW
Cosmos 2221 2.5 20:54:57 10° N 20:59:21 86° W 21:02:29 19° S
GEOS 3 Rocket 4.2 20:56:15 10° NE 21:01:36 65° NW 21:06:56 10° WSW
ERS-1 Rocket 4.1 20:57:02 10° SSW 21:01:42 38° W 21:06:24 10° NNW
USA 215 3.2 20:58:13 10° ENE 21:04:48 73° SE 21:11:21 10° SW
EO 1 Del DPAF 4.3 21:05:11 10° NE 21:08:30 28° E 21:09:59 22° SE
Cosmos 2278 Rocket 2.2 21:03:24 10° NNW 21:09:06 79° WSW 21:13:09 20° SSE
Cosmos 1892 2.8 21:07:01 22° SSE 21:09:14 58° E 21:12:59 10° NNE
ATLAS 5 CENTAUR R/B 3.0 21:09:25 10° WSW 21:13:32 43° NW 21:18:14 10° NE
Cosmos 1606 4.4 21:11:55 10° NNE 21:15:07 24° ENE 21:17:19 15° ESE
Aureole 2 Rocket 3.8 21:13:13 10° N 21:15:30 22° ENE 21:17:00 15° E
Cosmos 158 Rocket 4.3 21:13:10 21° SSE 21:16:05 43° ESE 21:20:44 10° NE
Cosmos 1943 Rocket 3.9 21:12:12 10° NNW 21:17:01 27° NE 21:21:47 10° E
SPOT 5 4.3 21:14:04 10° SSW 21:18:29 30° W 21:22:45 10° NNW
SL-16 R/B 3.6 21:18:56 17° SE 21:21:16 23° ESE 21:25:34 10° NE
Lacrosse 5 rocket 3.0 21:18:34 10° WNW 21:22:22 33° N 21:25:58 10° ENE
Spot 4 3.9 21:20:00 22° SSE 21:23:05 69° ENE 21:27:51 10° N
Cosmos 2056 Rocket 3.8 21:18:30 10° NNW 21:23:53 64° ENE 21:27:39 20° SE
Nadezhda 3 Rocket 4.0 21:18:11 10° N 21:24:37 87° E 21:29:11 20° S
Cosmos 2058 2.9 21:25:00 21° S 21:27:45 89° W 21:31:55 10° N
Cosmos 2154 Rocket 4.0 21:23:04 18° S 21:27:48 77° E 21:34:03 10° NNE
Cosmos 1408 2.6 21:29:05 29° SSE 21:30:43 62° E 21:34:16 10° NNE
Cosmos 2341 Rocket 4.4 21:26:54 21° SSE 21:30:53 48° E 21:36:49 10° NNE
Meteor 2-17 Rocket 4.5 21:27:26 15° SSW 21:32:38 80° W 21:38:44 10° N
In-Cosmos 22 Rocket 4.1 21:29:55 16° SSW 21:34:13 80° WNW 21:39:35 10° N
Cosmos 2074 Rocket 4.3 21:29:15 11° SSW 21:35:14 64° WNW 21:41:26 10° N
TSX-5 4.4 21:32:28 10° NW 21:35:47 40° WSW 21:37:36 25° S
USA 267 3.5 21:34:05 20° SSE 21:38:43 56° SW 21:45:10 10° WNW
Cosmos 1076 Rocket 3.5 21:36:08 21° SSW 21:38:58 79° W 21:43:16 10° N
Cosmos 1680 Rocket 3.5 21:35:42 18° SSW 21:39:40 75° ESE 21:45:01 10° NNE
CZ-4C R/B 4.0 21:39:24 10° NW 21:45:40 41° NNE 21:53:00 10° E
EO 1 Delta rocket 4.2 21:43:45 10° NNE 21:48:46 81° E 21:52:50 21° S
COSMOS 2455 3.7 21:43:32 10° NNW 21:49:24 48° NE 21:55:13 10° ESE
Cosmos 2151 3.1 21:47:18 28° SSE 21:49:24 61° E 21:53:37 10° NNE
SL-8 Rocket 4.4 21:46:21 22° SSE 21:50:05 50° E 21:56:00 10° NNE
Helios 1A 4.2 21:48:16 17° ESE 21:50:47 32° ENE 21:54:31 10° N
Cosmos 1452 Rocket 4.4 21:45:49 10° NNW 21:50:51 43° ENE 21:54:49 16° SE
Cosmos 923 Rocket 4.4 21:52:19 11° SW 21:57:16 65° WNW 22:02:34 10° NNE
ATLAS CENTAUR R/B 3.4 21:56:09 10° W 21:57:28 12° WSW 21:58:26 11° SW
Cosmos 1825 2.1 21:58:08 31° S 21:59:51 90° WNW 22:03:40 10° N
ALOS 2 2.6 21:58:03 28° SSE 22:00:19 79° ENE 22:04:44 10° NNW
Cosmos 1933 3.7 21:56:37 10° N 22:00:34 52° ENE 22:02:24 28° SE
Cosmos 1340 3.8 21:59:38 25° SE 22:00:46 30° E 22:04:05 10° NNE
Cosmos 1151 Rocket 3.3 21:56:48 10° N 22:01:06 59° ENE 22:03:13 28° SSE
Cosmos 2369 Rocket 3.4 21:56:22 10° NNW 22:01:32 36° NE 22:06:41 10° ESE
Cosmos 1980 3.8 21:56:55 12° SW 22:02:12 77° WNW 22:07:54 10° NNE
APEX 3.7 22:01:31 10° NNW 22:04:05 33° NE 22:05:07 24° E
Cosmos 44 3.5 22:05:15 31° SSE 22:06:37 40° ESE 22:10:47 10° NE
COSMOS 2428 4.1 22:02:14 10° WSW 22:07:30 38° NW 22:12:47 10° NNE
Cosmos 371 Rocket 3.4 22:04:06 10° NNW 22:08:58 71° ENE 22:11:47 25° SE
GP-B 3.1 22:04:49 10° N 22:09:17 71° E 22:11:23 30° SSE
Cosmos 1624 Rocket 4.3 22:09:11 10° NNW 22:14:17 54° WSW 22:16:57 27° S
Terra 4.2 22:12:04 10° WSW 22:14:20 13° W 22:16:38 10° WNW
NOSS 0 Rocket 4.4 22:08:41 10° SW 22:14:45 61° NW 22:20:54 10° NNE
NOSS 3-4 (A) 4.2 22:08:33 10° NW 22:15:15 51° WSW 22:19:46 23° S
NOSS 3-4 (C) 4.2 22:08:39 10° NW 22:15:22 51° WSW 22:19:55 24° S
Helios 1B rocket 4.4 22:14:59 10° NE 22:17:36 16° E 22:19:04 14° ESE
Nimbus 7 Rocket 4.4 22:12:36 10° NNE 22:18:35 83° ESE 22:22:22 24° SSW
SL-4 R/B 1.2 22:19:54 47° NNE 22:19:54 47° NNE 22:21:37 10° N
Cosmos 2237 Rocket 2.6 22:14:58 10° SW 22:20:33 62° WNW 22:26:15 10° NNE
Genesis I 3.2 22:18:36 19° SW 22:21:16 78° NW 22:25:12 10° NE
Cosmos 1782 3.7 22:17:57 10° N 22:21:42 39° ENE 22:23:34 24° SE
IRIDIUM 106 4.3 22:19:31 28° S 22:22:21 78° E 22:27:37 10° N
CREW DRAGON DEMO-1 DEB 3.0 22:22:53 48° SE 22:22:53 48° SE 22:25:37 10° E
Cosmos 2344 3.5 22:16:01 10° SW 22:23:23 80° SE 22:31:40 10° NE
Cosmos 2219 Rocket 4.1 22:18:45 10° WSW 22:23:34 28° NW 22:28:24 10° NNE
Thor Agena Rocket 4.3 22:24:24 10° N 22:29:19 47° WNW 22:33:18 15° SW
Cosmos 1346 Rocket 3.6 22:28:04 29° SE 22:29:22 39° E 22:33:03 10° NNE
Cosmos 2333 Rocket 4.3 22:29:14 10° W 22:33:55 25° NW 22:38:38 10° NNE
RESURS DK-1 3.7 22:36:00 10° NNW 22:39:51 36° NE 22:43:23 12° ESE
Cosmos 1515 Rocket 3.5 22:36:55 10° N 22:41:18 86° E 22:43:15 33° SSE
BREEZE-M DEB (TANK) 3.2 22:39:51 10° W 22:41:21 20° WSW 22:41:21 20° WSW
ATLAS 2AS CENTAUR R/B 3.5 22:36:07 10° NW 22:42:54 38° WSW 22:46:25 23° SSW
Cosmos 1766 Rocket 4.0 22:44:24 26° SW 22:46:42 55° WNW 22:51:03 10° N
USA 215 3.8 22:41:19 10° ENE 22:47:46 60° NNW 22:54:11 10° W
Cosmos 1328 Rocket 4.0 22:44:27 10° NNW 22:48:37 49° W 22:50:25 30° SSW
Aureole 2 Rocket 3.7 22:46:48 10° NW 22:48:59 21° WSW 22:48:59 21° WSW
Okean 3 Rocket 4.3 22:47:02 22° SW 22:49:34 46° WNW 22:53:51 10° N
Gbstr 26 Del rocket 3.3 22:49:28 34° SSE 22:49:44 35° SE 22:53:35 10° E
Cosmos 1606 3.8 22:47:23 10° NNW 22:50:55 33° W 22:52:19 25° SW
Cosmos 2278 Rocket 4.2 22:49:18 10° WNW 22:52:15 14° W 22:54:59 10° SW
Cosmos 2297 4.3 22:49:05 10° NW 22:54:30 44° WSW 22:57:11 26° SSW
Cosmos 2218 Rocket 4.2 22:50:54 23° SSW 22:55:01 72° WNW 23:01:20 10° N
Cosmos 304 Rocket 3.7 22:50:33 10° NNW 22:55:26 88° ENE 22:58:03 27° SSE
Cosmos 2228 Rocket 3.3 22:52:23 10° N 22:56:59 71° ENE 22:59:19 28° SSE
Cosmos 1943 4.3 22:56:06 21° SSE 22:58:43 30° ESE 23:03:35 10° NE
Cosmos 2366 rocket 4.2 22:56:35 23° SSW 23:00:42 69° WNW 23:07:04 10° N
Cosmos 1943 Rocket 2.2 22:55:39 10° NNW 23:01:21 74° WSW 23:04:40 26° SSE
Lacrosse 5 rocket 1.4 22:58:00 10° NW 23:02:01 70° NNE 23:05:48 10° ESE
Cosmos 1633 2.4 23:01:11 41° S 23:02:22 86° E 23:06:01 10° N
Landsat 4 3.7 22:58:47 10° NNE 23:02:35 78° ESE 23:03:59 38° S
SL-16 R/B 2.4 23:00:47 20° SW 23:04:49 72° WNW 23:10:33 10° NNE
Cosmos 1821 Rocket 4.1 23:05:52 25° S 23:09:32 65° E 23:15:35 10° NNE
YAOGAN 11 4.4 23:09:09 31° SSW 23:10:58 53° W 23:15:19 10° NNW
Cosmos 1743 Rocket 3.5 23:12:36 33° SSW 23:14:33 87° WNW 23:18:55 10° N
Sich 1 4.0 23:15:28 22° SE 23:17:34 36° E 23:21:34 10° NNE
Cosmos 332 Rocket 4.4 23:15:04 10° NW 23:19:34 40° WSW 23:21:28 28° SSW
Cosmos 1331 Rocket 4.1 23:14:36 10° NNW 23:19:58 81° ENE 23:23:39 20° SSE
Cosmos 1048 Rocket 4.0 23:19:32 27° SSW 23:22:28 81° ESE 23:27:45 10° NNE
Meteor 2-3 Rocket 4.2 23:21:02 21° SW 23:24:38 54° WNW 23:30:15 10° N
Helios 1A 4.1 23:24:53 24° SW 23:26:20 30° W 23:30:02 10° NW
Meteor 1-29 3.5 23:24:48 10° NNE 23:28:05 45° E 23:29:10 32° SSE
Cosmos 405 3.8 23:24:54 10° NNW 23:28:12 37° W 23:29:08 31° SW
Meteor 1-10 Rocket 4.1 23:26:43 10° NNW 23:32:21 87° W 23:35:50 24° S
SL-4 R/B 3.8 23:32:31 10° ESE 23:32:36 10° ESE 23:32:46 10° ESE
Cosmos 1452 Rocket 4.4 23:28:10 10° NW 23:32:53 34° WSW 23:35:06 24° SW
PSLV R/B 3.5 23:30:16 10° NNE 23:34:29 78° WNW 23:36:34 30° SSW
Meteor 2-6 Rocket 4.2 23:29:17 10° NNW 23:34:46 71° W 23:37:54 26° S
CZ-4C R/B 2.9 23:27:52 10° NW 23:34:57 82° SW 23:43:10 10° SE
Cosmos 389 Rocket 3.4 23:31:41 10° N 23:35:05 42° ENE 23:37:05 20° SE
COSMOS 2455 3.3 23:29:39 10° NW 23:35:20 43° WSW 23:38:24 25° S
Cosmos 1340 4.4 23:34:23 16° WSW 23:36:24 25° WNW 23:39:33 10° N
Cosmos 1110 Rocket 4.0 23:31:48 10° NNW 23:37:04 70° WSW 23:40:16 24° S
SL-16 R/B 3.3 23:32:04 10° SE 23:38:03 51° ENE 23:44:05 10° N
Cosmos 1603 3.8 23:36:25 26° SSW 23:39:43 70° ESE 23:45:26 10° NNE
IRAS Rocket 4.4 23:37:09 15° SSE 23:41:40 69° ENE 23:47:08 10° NNW
Cosmos 1269 Rocket 4.5 23:39:58 24° S 23:42:56 50° ESE 23:48:02 10° NNE
Resurs 1-4 Rocket 3.4 23:40:13 10° NNE 23:44:58 32° E 23:48:45 15° SSE
Cosmos 2369 Rocket 2.5 23:40:22 10° NW 23:45:45 49° WSW 23:48:49 24° S
Cosmos 1666 Rocket 4.1 23:44:14 23° SSE 23:46:42 49° E 23:50:58 10° NNE
Cosmos 1500 Rocket 4.2 23:44:49 24° SW 23:47:08 45° WNW 23:51:23 10° N
Cosmos 44 4.3 23:43:48 10° WSW 23:47:52 37° NW 23:52:04 10° NNE
SeaSat 1 3.3 23:44:03 10° NE 23:48:38 37° ESE 23:51:20 21° SSE
ISS -2.4 23:51:00 24° SE 23:51:00 24° SE 23:53:44 10° E
Helios 1B rocket 2.7 23:49:10 10° N 23:53:15 60° WNW 23:55:23 26° SW
ADEOS II 4.3 23:52:40 10° NE 23:56:04 17° E 23:59:27 10° SE
